User: anonymous   Login
Location: *
(49.9853°N, 3.5569°E)
Time: 07:24:37
(UTC+00:00)
Language:

Cosmos 405 Rocket - Orbit

View from above orbital plane
View from above orbital plane
View from above satellite
View from above satellite

Ground track
Ground track

The orbit data is extracted from the following two-line orbital elements,

1  5118U 71028B   19320.87155408 +.00000848 +00000-0 +43507-4 0  9999
2  5118 081.2576 221.5548 0046622 196.0310 163.9446 15.14435411637494
Epoch (UTC): 16 November 2019 20:55:02
Eccentricity: 0.0046622
inclination: 81.2576°
perigee height: 490 km
apogee height: 555 km
right ascension of ascending node: 221.5548°
argument of perigee: 196.0310°
revolutions per day: 15.14435411
mean anomaly at epoch: 163.9446°
orbit number at epoch: 63749

The dashed part of the orbit path shows where the satellite is in the earth's shadow,  

DLR